Regional Weather Roundup
Issued by NWS

Home | Current Version | Previous Version | Text Only | Print | Product List | Glossary Off
Versions: 1 2 3 4 5 6 7 8 9 10 11 12 13 14 15 16 17 18 19 20 21 22 23 24 25 26 27 28 29 30 31 32 33 34 35 36 37 38 39 40 41 42 43 44 45 46 47 48 49 50

000
ASUS45 KTFX 281810
RWRMT
MONTANA REGIONAL WEATHER ROUNDUP
NATIONAL WEATHER SERVICE GREAT FALLS MT
1200 PM MDT THU MAY 28 2015

NOTE: "FAIR" INDICATES FEW OR NO CLOUDS BELOW 12000 FEET WITH NO
SIGNIFICANT WEATHER AND/OR OBSTRUCTIONS TO VISIBILITY.

MTZ001>007-043-281900-
WEST OF THE DIVIDE

CITY           SKY/WX    TMP DP  RH WIND       PRES   REMARKS
KALISPELL      PTCLDY    67  48  50 VRB3      30.12S
MISSOULA       PTSUNNY   62  47  57 CALM      30.14S
BUTTE          CLOUDY    55  42  61 N6        30.16S
MULLAN PASS    PTSUNNY   52  46  80 N5        30.21R
DEER LODGE       N/A     57  46  67 N6        30.18S
EUREKA           N/A     61  52  72 CALM      30.15S
HAMILTON         N/A     61  46  59 NE2       30.15S
LIBBY            N/A     66  52  59 W5        30.12S
PLAINS           N/A     65  52  62 W1        30.12F
RONAN            N/A     64  53  67 W3        30.17S
THOMPSON FALLS   N/A     68  52  56 MISG      30.14F
$$

MTZ008-052>055-281900-
SOUTHWEST MONTANA

CITY           SKY/WX    TMP DP  RH WIND       PRES   REMARKS
BOZEMAN        CLOUDY    55  46  71 N3        30.13S
DILLON         MOSUNNY   58  43  57 NW7       30.13F
W YELLOWSTONE  CLOUDY    46  41  81 S6        30.17S
THREE FORKS      N/A     61  36  39 SW1       30.10S
TWIN BRIDGES     N/A     58  44  59 CALM      30.11S
$$

MTZ009-010-012-014-046-048-049-054-281900-
EAST SLOPES AND CENTRAL MONTANA

CITY           SKY/WX    TMP DP  RH WIND       PRES   REMARKS
CUT BANK       CLOUDY    53  50  89 N24       30.16R FOG
GREAT FALLS    CLOUDY    54  51  90 W14       30.11S
MALMSTROM AFB  CLOUDY    55  51  87 W9        30.12R
HELENA         RAIN      54  50  86 NW8       30.14R FOG
CONRAD           N/A     54  53  96 NW13      30.16R
$$

MTZ011-013-016-021-045-047-050-051-281900-
NORTH CENTRAL MONTANA

CITY           SKY/WX    TMP DP  RH WIND       PRES   REMARKS
HAVRE          PTSUNNY   68  52  56 NW3       30.02S
LEWISTOWN      PTSUNNY   64  49  57 N8        30.06R
N BAR RANCH    FAIR      61  46  59 NW15      30.07S
CHINOOK          N/A     70  54  56 W12G17    30.00F
FORT BENTON      N/A     64  52  63 W13G21    30.08R
$$

MTZ017>020-022>027-061-062-281900-
NORTHEAST MONTANA

CITY           SKY/WX    TMP DP  RH WIND       PRES   REMARKS
GLASGOW        PTSUNNY   70  53  54 N12       29.95R
JORDAN           N/A     72  49  44 NW13      29.96R
SIDNEY         PTSUNNY   72  54  53 NW8       29.89S
WOLF POINT     PTSUNNY   72  55  55 N9        29.92S
MALTA            N/A     69  48  46 N3        29.96R
PLENTYWOOD       N/A     66  54  63 NE13G18   29.92S
POPLAR           N/A     70  54  56 N10       29.91S
SCOBEY           N/A     67  51  56 N14       29.94R
$$

MTZ028>42-056>058-281900-
SOUTHCENTRAL AND SOUTHEAST MONTANA

CITY           SKY/WX    TMP DP  RH WIND       PRES   REMARKS
BAKER          CLOUDY    71  51  49 NW15      29.94F
BILLINGS       PTSUNNY   65  47  52 SW7       30.02F
LIVINGSTON     PTSUNNY   59  45  59 SW17      30.09S
MILES CITY     PTSUNNY   72  52  49 NW15      29.95S
BIG TIMBER       N/A     57  46  67 SW14      30.08F
LAUREL           N/A     65  48  53 NE2       30.01F
ROUNDUP          N/A     66  47  50 N8        29.94R
$$

REGIONAL REPORTS...DAKOTAS

CITY           SKY/WX    TMP DP  RH WIND       PRES   REMARKS
WILLISTON      MOSUNNY   71  56  58 N10       29.89F
MINOT          CLOUDY    69  56  62 NW13      29.85S
DICKINSON      PTSUNNY   70  53  54 W12G21    29.88F
BEACH          FAIR      68  52  56 W9G17     29.92F
CROSBY         MOCLDY    66  59  77 N7        29.90F
WATFORD CITY   MOCLDY    68  57  68 NW10      29.86F
BISMARCK       PTSUNNY   74  59  59 MISG      29.87S
GRAND FORKS    PTSUNNY   73  61  65 S16G22    29.84F
FARGO          PTSUNNY   79  63  57 S23G35    29.84F
BUFFALO SD       N/A     70  52  52 NW20      29.87S
RAPID CITY     MOSUNNY   72  53  51 NE13      29.95S
$$

REGIONAL REPORTS...WYOMING/IDAHO/WASHINGTON

CITY           SKY/WX    TMP DP  RH WIND       PRES   REMARKS
GILLETTE       CLOUDY    62  49  62 N10       30.01F
SHERIDAN       CLOUDY    61  50  67 W6        30.04S
BUFFALO WY     CLOUDY    55  47  74 W12       30.07S
CODY           CLOUDY    55  45  67 N13       30.09S
YELLOWSTONE LA   N/A     35  34  96 CALM      30.22R
IDAHO FALLS    PTSUNNY   56  44  64 CALM      30.15S
SALMON         PTSUNNY   59  46  63 N3        30.13S
BOISE          SUNNY     69  45  41 NW6       30.10S
SPOKANE        MOSUNNY   70  50  49 S7        30.10S
$$

REGIONAL REPORTS...ALBERTA

CITY           SKY/WX    TMP DP  RH WIND       PRES   REMARKS
EDMONTON       SUNNY     46  28  49 NE9G25    30.32R
CALGARY        CLOUDY    48  43  81 N15       30.27R
LETHBRIDGE     LGT RAIN  48  46  93 N12G21    30.21R SMOKE
MEDICINE HAT   LGT RAIN  50  48  93 N17G26    30.15R
$$

REGIONAL REPORTS...SASKATCHEWAN

CITY           SKY/WX    TMP DP  RH WIND       PRES   REMARKS
SWIFT CURRENT  LGT RAIN  54  50  87 N24G31    30.04R
REGINA         PTSUNNY   72  52  49 NW17G29   29.91S
SASKATOON      PTSUNNY   48  41  76 N24G33    30.12R
$$



USA.gov is the U.S. government's official web portal to all federal, state and local government web resources and services.